ARG2561 SAEZ-SAWH

Flight info

Callsign ARG2561
Flight time 3h 1m
Altitude 38000
Route GBE1A GBE UZ117 DIL UT662 ASKAS UT704 DABLI DABLI1Q
Aircraft B77W/H-SDE1E2E3FGHIJ2J3J4J5M1RWXY/LB1D1

Departure

Time 2026-05-06 18:35
Airport Ezeiza International Airport - Ministro Pistarini (SAEZ)

Arrival

Time 2026-05-06 21:36
Airport Ushuaia - Malvinas Argentinas International Airport (SAWH)
Time Latitude Longitude Altitude Speed Heading
2026-05-06 18:09 -34.81680 -58.54163 80 ft 0 kts 11°
2026-05-06 18:29 -34.81683 -58.54163 80 ft 3 kts 11°
2026-05-06 18:29 -34.81709 -58.54169 86 ft 4 kts 12°
2026-05-06 18:29 -34.81735 -58.54177 80 ft 4 kts 19°
2026-05-06 18:29 -34.81757 -58.54185 80 ft 4 kts 356°
2026-05-06 18:30 -34.81776 -58.54182 80 ft 4 kts 324°
2026-05-06 18:30 -34.81786 -58.54166 80 ft 4 kts 284°
2026-05-06 18:30 -34.81791 -58.54134 80 ft 4 kts 279°
2026-05-06 18:30 -34.81793 -58.54124 80 ft 0 kts 280°
2026-05-06 18:32 -34.81777 -58.54241 84 ft 19 kts 278°
2026-05-06 18:32 -34.81759 -58.54405 84 ft 20 kts 277°
2026-05-06 18:32 -34.81759 -58.54574 81 ft 20 kts 261°
2026-05-06 18:33 -34.81777 -58.54741 84 ft 20 kts 272°
2026-05-06 18:33 -34.81749 -58.54907 83 ft 20 kts 283°
2026-05-06 18:33 -34.81720 -58.55073 85 ft 20 kts 281°
2026-05-06 18:33 -34.81700 -58.55240 81 ft 20 kts 266°
2026-05-06 18:34 -34.81791 -58.55342 81 ft 20 kts 176°
2026-05-06 18:34 -34.81905 -58.55250 87 ft 20 kts 127°
2026-05-06 18:34 -34.81969 -58.54985 88 ft 56 kts 102°
2026-05-06 18:34 -34.82136 -58.54050 87 ft 170 kts 102°
2026-05-06 18:35 -34.82417 -58.52421 783 ft 200 kts 100°
2026-05-06 18:35 -34.82869 -58.50809 2099 ft 209 kts 119°
2026-05-06 18:35 -34.83842 -58.49395 3000 ft 230 kts 127°
2026-05-06 18:35 -34.84947 -58.47759 3450 ft 268 kts 124°
2026-05-06 18:36 -34.86098 -58.45937 4452 ft 278 kts 120°
2026-05-06 18:36 -34.87150 -58.43924 5526 ft 285 kts 123°
2026-05-06 18:36 -34.88672 -58.42273 6405 ft 303 kts 151°
2026-05-06 18:36 -34.90673 -58.41474 7540 ft 304 kts 177°
2026-05-06 18:37 -34.92776 -58.41132 8436 ft 311 kts 165°
2026-05-06 18:37 -34.94173 -58.40572 8971 ft 315 kts 166°
2026-05-06 18:37 -34.97079 -58.40309 10233 ft 317 kts 187°
2026-05-06 18:37 -34.99273 -58.40543 11491 ft 316 kts 190°
2026-05-06 18:38 -35.01466 -58.40832 12665 ft 319 kts 191°
2026-05-06 18:38 -35.03689 -58.41121 13863 ft 323 kts 191°
2026-05-06 18:38 -35.05938 -58.41381 15076 ft 326 kts 191°
2026-05-06 18:38 -35.08207 -58.41612 16271 ft 329 kts 191°
2026-05-06 18:39 -35.10501 -58.41821 17420 ft 333 kts 191°
2026-05-06 18:39 -35.12832 -58.42016 18534 ft 337 kts 192°
2026-05-06 18:39 -35.15183 -58.42201 19621 ft 342 kts 192°
2026-05-06 18:40 -35.20035 -58.42564 21568 ft 356 kts 191°
2026-05-06 18:40 -35.22525 -58.42744 22532 ft 362 kts 191°
2026-05-06 18:40 -35.25058 -58.42926 23490 ft 367 kts 192°
2026-05-06 18:40 -35.27630 -58.43108 24440 ft 372 kts 192°
2026-05-06 18:41 -35.29351 -58.43230 25038 ft 375 kts 191°
2026-05-06 18:41 -35.32870 -58.43480 26263 ft 381 kts 192°
2026-05-06 18:41 -35.34629 -58.43605 26872 ft 384 kts 192°
2026-05-06 18:41 -35.37308 -58.43795 27706 ft 388 kts 192°
2026-05-06 18:42 -35.40909 -58.44052 28805 ft 394 kts 192°
2026-05-06 18:42 -35.43662 -58.44249 29596 ft 398 kts 192°
2026-05-06 18:42 -35.46440 -58.44446 30345 ft 402 kts 192°
2026-05-06 18:42 -35.48336 -58.44582 30833 ft 405 kts 192°
2026-05-06 18:43 -35.52075 -58.44849 31803 ft 408 kts 192°
2026-05-06 18:43 -35.54000 -58.44987 32274 ft 410 kts 193°
2026-05-06 18:43 -35.56860 -58.45191 32906 ft 413 kts 193°
2026-05-06 18:43 -35.59737 -58.45397 33512 ft 416 kts 193°
2026-05-06 18:44 -35.62606 -58.45603 34091 ft 419 kts 193°
2026-05-06 18:44 -35.65527 -58.45813 34650 ft 422 kts 193°
2026-05-06 18:44 -35.68467 -58.46024 35189 ft 424 kts 193°
2026-05-06 18:44 -35.71415 -58.46243 35722 ft 424 kts 194°
2026-05-06 18:45 -35.74311 -58.46743 36182 ft 418 kts 201°
2026-05-06 18:45 -35.77125 -58.47605 36596 ft 415 kts 206°
2026-05-06 18:45 -35.79833 -58.48807 36990 ft 412 kts 211°
2026-05-06 18:45 -35.82472 -58.50143 37510 ft 410 kts 212°
2026-05-06 18:46 -35.85090 -58.51497 38103 ft 407 kts 212°
2026-05-06 18:46 -35.87700 -58.52856 38456 ft 409 kts 212°
2026-05-06 18:46 -35.90337 -58.54229 38702 ft 414 kts 212°
2026-05-06 18:46 -35.93006 -58.55613 38978 ft 417 kts 212°
2026-05-06 18:47 -35.95693 -58.56997 39300 ft 419 kts 212°
2026-05-06 18:47 -35.98397 -58.58386 39573 ft 422 kts 212°
2026-05-06 18:47 -36.01119 -58.59781 39675 ft 425 kts 212°
2026-05-06 18:48 -36.06611 -58.62594 39756 ft 430 kts 212°
2026-05-06 18:48 -36.12153 -58.65436 39759 ft 431 kts 212°
2026-05-06 18:49 -36.17677 -58.68269 39755 ft 430 kts 212°
2026-05-06 18:49 -36.23165 -58.71093 39763 ft 430 kts 212°
2026-05-06 18:50 -36.28692 -58.73944 39759 ft 430 kts 212°
2026-05-06 18:50 -36.34235 -58.76807 39759 ft 431 kts 212°
2026-05-06 18:51 -36.39779 -58.79675 39761 ft 432 kts 212°
2026-05-06 18:51 -36.45331 -58.82552 39756 ft 433 kts 212°
2026-05-06 18:52 -36.50897 -58.85439 39764 ft 434 kts 212°
2026-05-06 18:52 -36.56473 -58.88335 39756 ft 434 kts 212°
2026-05-06 18:53 -36.62016 -58.91218 39758 ft 434 kts 212°
2026-05-06 18:53 -36.67591 -58.94126 39756 ft 434 kts 212°
2026-05-06 18:54 -36.73180 -58.97044 39759 ft 435 kts 212°
2026-05-06 18:54 -36.78758 -58.99961 39758 ft 435 kts 212°
2026-05-06 18:55 -36.84346 -59.02888 39758 ft 435 kts 212°
2026-05-06 18:55 -36.89954 -59.05830 39747 ft 436 kts 212°
2026-05-06 18:56 -36.95544 -59.08768 39752 ft 437 kts 212°
2026-05-06 18:56 -37.01137 -59.11710 39746 ft 437 kts 212°
2026-05-06 18:57 -37.06777 -59.14684 39755 ft 438 kts 212°
2026-05-06 18:57 -37.12373 -59.17639 39748 ft 438 kts 212°
2026-05-06 18:58 -37.18017 -59.20624 39753 ft 440 kts 212°
2026-05-06 18:58 -37.23692 -59.23512 39747 ft 446 kts 207°
2026-05-06 18:59 -37.29639 -59.25840 39755 ft 449 kts 206°
2026-05-06 18:59 -37.35616 -59.28097 39753 ft 450 kts 206°
2026-05-06 19:00 -37.41592 -59.30381 39740 ft 450 kts 206°
2026-05-06 19:00 -37.47585 -59.32698 39753 ft 450 kts 206°
2026-05-06 19:01 -37.53589 -59.35032 39747 ft 451 kts 206°
2026-05-06 19:01 -37.59604 -59.37375 39752 ft 452 kts 206°
2026-05-06 19:02 -37.65615 -59.39720 39744 ft 452 kts 205°
2026-05-06 19:02 -37.71587 -59.42054 39749 ft 453 kts 205°
2026-05-06 19:03 -37.77598 -59.44406 39755 ft 453 kts 205°
2026-05-06 19:03 -37.83626 -59.46768 39757 ft 454 kts 205°
2026-05-06 19:04 -37.89667 -59.49139 39759 ft 454 kts 205°
2026-05-06 19:04 -37.95726 -59.51522 39759 ft 455 kts 205°
2026-05-06 19:05 -38.01740 -59.53892 39750 ft 455 kts 205°
2026-05-06 19:05 -38.07797 -59.56284 39751 ft 457 kts 205°
2026-05-06 19:06 -38.13902 -59.58697 39751 ft 458 kts 205°
2026-05-06 19:06 -38.19989 -59.61107 39746 ft 457 kts 205°
2026-05-06 19:07 -38.26031 -59.63504 39751 ft 457 kts 205°
2026-05-06 19:07 -38.32111 -59.65920 39747 ft 458 kts 205°
2026-05-06 19:08 -38.38172 -59.68336 39752 ft 458 kts 205°
2026-05-06 19:08 -38.44279 -59.70776 39748 ft 459 kts 205°
2026-05-06 19:09 -38.50369 -59.73214 39762 ft 459 kts 205°
2026-05-06 19:09 -38.56452 -59.75653 39758 ft 460 kts 205°
2026-05-06 19:10 -38.62580 -59.78114 39760 ft 461 kts 205°
2026-05-06 19:10 -38.68706 -59.80579 39756 ft 461 kts 205°
2026-05-06 19:11 -38.74817 -59.83044 39754 ft 462 kts 205°
2026-05-06 19:11 -38.80964 -59.85525 39749 ft 464 kts 205°
2026-05-06 19:12 -38.87119 -59.88017 39753 ft 465 kts 205°
2026-05-06 19:12 -38.93294 -59.90519 39760 ft 466 kts 205°
2026-05-06 19:13 -38.99458 -59.93024 39759 ft 468 kts 205°
2026-05-06 19:13 -39.05695 -59.95561 39757 ft 469 kts 205°
2026-05-06 19:14 -39.11891 -59.98086 39759 ft 470 kts 205°
2026-05-06 19:14 -39.18138 -60.00637 39759 ft 472 kts 205°
2026-05-06 19:15 -39.24456 -60.03225 39764 ft 477 kts 205°
2026-05-06 19:15 -39.30767 -60.05811 39761 ft 479 kts 205°
2026-05-06 19:16 -39.37115 -60.08414 39756 ft 479 kts 205°
2026-05-06 19:16 -39.43490 -60.11036 39760 ft 481 kts 205°
2026-05-06 19:17 -39.49885 -60.13672 39758 ft 482 kts 205°
2026-05-06 19:17 -39.56271 -60.16309 39757 ft 482 kts 205°
2026-05-06 19:18 -39.62653 -60.18951 39759 ft 483 kts 205°
2026-05-06 19:18 -39.69090 -60.21620 39762 ft 483 kts 205°
2026-05-06 19:19 -39.75461 -60.24266 39758 ft 484 kts 205°
2026-05-06 19:19 -39.81891 -60.26942 39759 ft 484 kts 205°
2026-05-06 19:20 -39.88263 -60.29600 39758 ft 484 kts 205°
2026-05-06 19:20 -39.94674 -60.32278 39760 ft 484 kts 205°
2026-05-06 19:21 -40.01102 -60.34969 39758 ft 483 kts 205°
2026-05-06 19:21 -40.07511 -60.37658 39748 ft 484 kts 205°
2026-05-06 19:22 -40.13897 -60.40346 39751 ft 485 kts 205°
2026-05-06 19:22 -40.20357 -60.43067 39750 ft 486 kts 205°
2026-05-06 19:23 -40.26779 -60.45776 39754 ft 485 kts 205°
2026-05-06 19:23 -40.33196 -60.48488 39758 ft 484 kts 205°
2026-05-06 19:24 -40.39573 -60.51193 39760 ft 484 kts 205°
2026-05-06 19:24 -40.45979 -60.53913 39757 ft 483 kts 205°
2026-05-06 19:25 -40.52365 -60.56579 39760 ft 484 kts 204°
2026-05-06 19:25 -40.58867 -60.59113 39757 ft 484 kts 204°
2026-05-06 19:26 -40.65290 -60.61592 39764 ft 484 kts 204°
2026-05-06 19:26 -40.71735 -60.64107 39759 ft 483 kts 204°
2026-05-06 19:27 -40.78203 -60.66651 39757 ft 482 kts 204°
2026-05-06 19:27 -40.84637 -60.69193 39759 ft 482 kts 204°
2026-05-06 19:28 -40.91046 -60.71732 39762 ft 483 kts 204°
2026-05-06 19:28 -40.96414 -60.73860 39774 ft 482 kts 204°
2026-05-06 19:29 -41.02828 -60.76405 39779 ft 482 kts 204°
2026-05-06 19:29 -41.09224 -60.78947 39777 ft 481 kts 204°
2026-05-06 19:30 -41.15643 -60.81505 39778 ft 480 kts 205°
2026-05-06 19:30 -41.22049 -60.84065 39777 ft 480 kts 205°
2026-05-06 19:31 -41.28449 -60.86627 39779 ft 480 kts 205°
2026-05-06 19:31 -41.38028 -60.90471 39776 ft 479 kts 205°
2026-05-06 19:32 -41.44381 -60.93027 39779 ft 479 kts 205°
2026-05-06 19:32 -41.50782 -60.95607 39778 ft 479 kts 205°
2026-05-06 19:33 -41.57169 -60.98188 39776 ft 478 kts 205°
2026-05-06 19:33 -41.63523 -61.00760 39778 ft 478 kts 205°
2026-05-06 19:34 -41.69896 -61.03345 39777 ft 478 kts 205°
2026-05-06 19:34 -41.76247 -61.05925 39777 ft 479 kts 205°
2026-05-06 19:35 -41.82649 -61.08533 39780 ft 479 kts 205°
2026-05-06 19:35 -41.89003 -61.11126 39774 ft 478 kts 205°
2026-05-06 19:36 -41.95377 -61.13736 39780 ft 479 kts 205°
2026-05-06 19:36 -42.01766 -61.16355 39778 ft 480 kts 205°
2026-05-06 19:37 -42.08103 -61.18956 39781 ft 478 kts 205°
2026-05-06 19:37 -42.14480 -61.21583 39787 ft 478 kts 205°
2026-05-06 19:38 -42.20834 -61.24200 39790 ft 479 kts 205°
2026-05-06 19:38 -42.27236 -61.26845 39787 ft 479 kts 205°
2026-05-06 19:39 -42.33582 -61.29477 39787 ft 478 kts 205°
2026-05-06 19:39 -42.39940 -61.32116 39788 ft 478 kts 205°
2026-05-06 19:40 -42.46315 -61.34770 39785 ft 479 kts 205°
2026-05-06 19:40 -42.52688 -61.37428 39787 ft 480 kts 205°
2026-05-06 19:41 -42.59048 -61.40083 39786 ft 480 kts 205°
2026-05-06 19:41 -42.65411 -61.42745 39785 ft 478 kts 205°
2026-05-06 19:42 -42.71782 -61.45417 39787 ft 478 kts 205°
2026-05-06 19:42 -42.78125 -61.48087 39788 ft 478 kts 205°
2026-05-06 19:43 -42.84481 -61.50766 39786 ft 478 kts 205°
2026-05-06 19:43 -42.90842 -61.53453 39788 ft 478 kts 205°
2026-05-06 19:44 -42.97157 -61.56125 39796 ft 478 kts 205°
2026-05-06 19:44 -43.03537 -61.58826 39795 ft 478 kts 205°
2026-05-06 19:45 -43.09876 -61.61515 39797 ft 478 kts 205°
2026-05-06 19:45 -43.16228 -61.64215 39796 ft 478 kts 205°
2026-05-06 19:46 -43.22563 -61.66916 39798 ft 477 kts 205°
2026-05-06 19:46 -43.28939 -61.69641 39795 ft 476 kts 205°
2026-05-06 19:47 -43.35228 -61.72333 39810 ft 476 kts 205°
2026-05-06 19:47 -43.41586 -61.75061 39821 ft 477 kts 205°
2026-05-06 19:48 -43.47917 -61.77783 39814 ft 477 kts 205°
2026-05-06 19:48 -43.54218 -61.80499 39823 ft 476 kts 204°
2026-05-06 19:49 -43.60535 -61.83228 39821 ft 476 kts 204°
2026-05-06 19:49 -43.66853 -61.85962 39820 ft 476 kts 204°
2026-05-06 19:50 -43.73175 -61.88704 39824 ft 476 kts 204°
2026-05-06 19:50 -43.79487 -61.91449 39830 ft 476 kts 204°
2026-05-06 19:51 -43.85810 -61.94205 39831 ft 476 kts 204°
2026-05-06 19:51 -43.92119 -61.96960 39831 ft 476 kts 204°
2026-05-06 19:52 -43.98439 -61.99726 39830 ft 476 kts 204°
2026-05-06 19:52 -44.04753 -62.02496 39835 ft 476 kts 204°
2026-05-06 19:53 -44.11066 -62.05271 39850 ft 476 kts 205°
2026-05-06 19:53 -44.17400 -62.08063 39844 ft 476 kts 205°
2026-05-06 19:54 -44.23708 -62.10848 39840 ft 476 kts 205°
2026-05-06 19:54 -44.30025 -62.13645 39842 ft 476 kts 205°
2026-05-06 19:55 -44.36307 -62.16432 39843 ft 475 kts 205°
2026-05-06 19:55 -44.42615 -62.19237 39846 ft 475 kts 205°
2026-05-06 19:56 -44.48920 -62.22046 39841 ft 475 kts 205°
2026-05-06 19:56 -44.55215 -62.24858 39840 ft 474 kts 205°
2026-05-06 19:57 -44.61477 -62.27660 39843 ft 474 kts 205°
2026-05-06 19:57 -44.67725 -62.30466 39853 ft 473 kts 205°
2026-05-06 19:58 -44.74027 -62.33301 39852 ft 473 kts 205°
2026-05-06 19:58 -44.80265 -62.36112 39854 ft 473 kts 205°
2026-05-06 19:59 -44.86566 -62.38959 39850 ft 472 kts 205°
2026-05-06 19:59 -44.92796 -62.41780 39853 ft 471 kts 205°
2026-05-06 20:00 -44.99032 -62.44612 39855 ft 471 kts 205°
2026-05-06 20:00 -45.05274 -62.47452 39851 ft 470 kts 205°
2026-05-06 20:01 -45.11464 -62.50276 39864 ft 470 kts 205°
2026-05-06 20:01 -45.17683 -62.53121 39861 ft 469 kts 205°
2026-05-06 20:02 -45.23915 -62.55978 39862 ft 469 kts 205°
2026-05-06 20:02 -45.30092 -62.58819 39861 ft 468 kts 205°
2026-05-06 20:03 -45.36287 -62.61673 39862 ft 468 kts 205°
2026-05-06 20:03 -45.42486 -62.64535 39859 ft 467 kts 205°
2026-05-06 20:04 -45.48666 -62.67396 39866 ft 467 kts 205°
2026-05-06 20:04 -45.54864 -62.70274 39873 ft 467 kts 206°
2026-05-06 20:05 -45.60994 -62.73125 39869 ft 466 kts 206°
2026-05-06 20:05 -45.67170 -62.76005 39870 ft 466 kts 206°
2026-05-06 20:06 -45.73356 -62.78893 39872 ft 466 kts 206°
2026-05-06 20:06 -45.79504 -62.81772 39870 ft 466 kts 206°
2026-05-06 20:07 -45.85642 -62.84654 39876 ft 466 kts 206°
2026-05-06 20:07 -45.91835 -62.87569 39878 ft 467 kts 206°
2026-05-06 20:08 -45.97989 -62.90469 39869 ft 467 kts 205°
2026-05-06 20:08 -46.04137 -62.93372 39874 ft 464 kts 205°
2026-05-06 20:09 -46.10248 -62.96267 39866 ft 462 kts 206°
2026-05-06 20:09 -46.16343 -62.99165 39880 ft 462 kts 206°
2026-05-06 20:10 -46.22480 -63.02088 39880 ft 463 kts 206°
2026-05-06 20:10 -46.28582 -63.05001 39872 ft 463 kts 205°
2026-05-06 20:11 -46.34702 -63.07925 39859 ft 463 kts 205°
2026-05-06 20:11 -46.40816 -63.10856 39868 ft 462 kts 205°
2026-05-06 20:12 -46.46913 -63.13786 39872 ft 463 kts 206°
2026-05-06 20:12 -46.53018 -63.16728 39869 ft 463 kts 206°
2026-05-06 20:13 -46.59125 -63.19677 39875 ft 462 kts 205°
2026-05-06 20:13 -46.65215 -63.22623 39880 ft 461 kts 205°
2026-05-06 20:14 -46.71294 -63.25573 39881 ft 462 kts 205°
2026-05-06 20:14 -46.77396 -63.28538 39879 ft 461 kts 205°
2026-05-06 20:15 -46.83491 -63.31510 39888 ft 461 kts 206°
2026-05-06 20:15 -46.89578 -63.34486 39890 ft 461 kts 206°
2026-05-06 20:16 -46.95659 -63.37462 39887 ft 460 kts 205°
2026-05-06 20:16 -47.01688 -63.40423 39897 ft 460 kts 205°
2026-05-06 20:17 -47.07760 -63.43411 39901 ft 460 kts 205°
2026-05-06 20:17 -47.13819 -63.46398 39954 ft 458 kts 206°
2026-05-06 20:18 -47.18850 -63.48887 39960 ft 459 kts 206°
2026-05-06 20:18 -47.24912 -63.51892 39967 ft 460 kts 206°
2026-05-06 20:19 -47.30983 -63.54907 39960 ft 459 kts 205°
2026-05-06 20:19 -47.38006 -63.58403 39966 ft 458 kts 205°
2026-05-06 20:20 -47.43032 -63.60913 39963 ft 458 kts 206°
2026-05-06 20:20 -47.49061 -63.63930 39964 ft 458 kts 206°
2026-05-06 20:21 -47.55069 -63.66943 39977 ft 457 kts 206°
2026-05-06 20:21 -47.61103 -63.69978 39972 ft 457 kts 206°
2026-05-06 20:22 -47.67121 -63.73011 39970 ft 457 kts 205°
2026-05-06 20:22 -47.73128 -63.76045 39978 ft 457 kts 205°
2026-05-06 20:23 -47.79143 -63.79089 39973 ft 456 kts 206°
2026-05-06 20:23 -47.85150 -63.82140 39971 ft 456 kts 206°
2026-05-06 20:24 -47.91156 -63.85199 39971 ft 456 kts 206°
2026-05-06 20:24 -47.97174 -63.88270 39977 ft 456 kts 206°
2026-05-06 20:25 -48.03188 -63.91344 39984 ft 456 kts 206°
2026-05-06 20:25 -48.09163 -63.94409 39986 ft 456 kts 206°
2026-05-06 20:26 -48.15174 -63.97499 39977 ft 456 kts 206°
2026-05-06 20:26 -48.21177 -64.00593 39984 ft 456 kts 206°
2026-05-06 20:27 -48.27179 -64.03693 39982 ft 456 kts 206°
2026-05-06 20:27 -48.33155 -64.06785 39979 ft 456 kts 206°
2026-05-06 20:28 -48.39163 -64.09900 39981 ft 456 kts 206°
2026-05-06 20:28 -48.45129 -64.13005 39986 ft 456 kts 206°
2026-05-06 20:29 -48.51142 -64.16141 39993 ft 456 kts 206°
2026-05-06 20:29 -48.57154 -64.19285 39989 ft 456 kts 206°
2026-05-06 20:30 -48.66115 -64.23985 39991 ft 456 kts 206°
2026-05-06 20:31 -48.72123 -64.27146 39992 ft 457 kts 206°
2026-05-06 20:31 -48.78130 -64.30315 39989 ft 457 kts 206°
2026-05-06 20:32 -48.84133 -64.33490 39989 ft 457 kts 206°
2026-05-06 20:32 -48.90124 -64.36666 39992 ft 457 kts 205°
2026-05-06 20:33 -48.96146 -64.39866 39989 ft 457 kts 205°
2026-05-06 20:33 -49.02145 -64.43064 39998 ft 456 kts 205°
2026-05-06 20:34 -49.08131 -64.46262 40001 ft 456 kts 205°
2026-05-06 20:34 -49.14127 -64.49474 40001 ft 456 kts 205°
2026-05-06 20:35 -49.20087 -64.52674 39999 ft 456 kts 205°
2026-05-06 20:35 -49.26083 -64.55903 39999 ft 456 kts 205°
2026-05-06 20:36 -49.32081 -64.59140 40003 ft 457 kts 205°
2026-05-06 20:36 -49.38081 -64.62388 40000 ft 457 kts 205°
2026-05-06 20:37 -49.44074 -64.65639 40002 ft 457 kts 205°
2026-05-06 20:37 -49.50035 -64.68882 40002 ft 456 kts 205°
2026-05-06 20:38 -49.56033 -64.72154 39999 ft 457 kts 205°
2026-05-06 20:38 -49.62025 -64.75430 40004 ft 456 kts 205°
2026-05-06 20:39 -49.68009 -64.78711 40010 ft 456 kts 205°
2026-05-06 20:39 -49.73946 -64.81974 40009 ft 456 kts 205°
2026-05-06 20:40 -49.79926 -64.85270 40009 ft 456 kts 205°
2026-05-06 20:40 -49.85903 -64.88573 40008 ft 456 kts 205°
2026-05-06 20:41 -49.91883 -64.91887 40011 ft 457 kts 205°
2026-05-06 20:41 -49.97868 -64.95212 40008 ft 457 kts 205°
2026-05-06 20:42 -50.03861 -64.98550 40011 ft 456 kts 205°
2026-05-06 20:42 -50.09845 -65.01890 40008 ft 455 kts 205°
2026-05-06 20:43 -50.15773 -65.05210 40010 ft 455 kts 205°
2026-05-06 20:43 -50.21744 -65.08563 40009 ft 456 kts 205°
2026-05-06 20:44 -50.27713 -65.11923 40008 ft 456 kts 205°
2026-05-06 20:44 -50.33689 -65.15297 40011 ft 457 kts 205°
2026-05-06 20:45 -50.39663 -65.18678 40013 ft 456 kts 205°
2026-05-06 20:45 -50.45639 -65.22068 40027 ft 456 kts 205°
2026-05-06 20:46 -50.51613 -65.25468 40029 ft 457 kts 205°
2026-05-06 20:46 -50.57583 -65.28874 40027 ft 457 kts 205°
2026-05-06 20:47 -50.63525 -65.32274 40018 ft 456 kts 205°
2026-05-06 20:47 -50.69509 -65.35706 40018 ft 456 kts 205°
2026-05-06 20:48 -50.75476 -65.39138 40019 ft 456 kts 205°
2026-05-06 20:48 -50.81412 -65.42562 40019 ft 456 kts 205°
2026-05-06 20:49 -50.87381 -65.46014 40019 ft 456 kts 205°
2026-05-06 20:49 -50.93358 -65.49480 40019 ft 456 kts 205°
2026-05-06 20:50 -50.99322 -65.52948 40019 ft 456 kts 205°
2026-05-06 20:50 -51.05247 -65.56403 40018 ft 456 kts 205°
2026-05-06 20:51 -51.11215 -65.59892 40019 ft 456 kts 205°
2026-05-06 20:51 -51.17179 -65.63389 40019 ft 456 kts 206°
2026-05-06 20:52 -51.23138 -65.66893 40018 ft 456 kts 206°
2026-05-06 20:52 -51.29087 -65.70400 40018 ft 456 kts 205°
2026-05-06 20:53 -51.35043 -65.73922 40021 ft 456 kts 205°
2026-05-06 20:53 -51.40989 -65.77447 40027 ft 456 kts 205°
2026-05-06 20:54 -51.46944 -65.80987 40028 ft 456 kts 206°
2026-05-06 20:54 -51.52868 -65.84519 40025 ft 456 kts 206°
2026-05-06 20:55 -51.58836 -65.88087 40030 ft 457 kts 205°
2026-05-06 20:55 -51.64771 -65.91646 40029 ft 457 kts 205°
2026-05-06 20:56 -51.70719 -65.95222 40024 ft 457 kts 206°
2026-05-06 20:56 -51.76703 -65.98830 40018 ft 457 kts 206°
2026-05-06 20:57 -51.82652 -66.02325 40020 ft 458 kts 204°
2026-05-06 20:57 -51.88713 -66.05664 40018 ft 458 kts 204°
2026-05-06 20:58 -51.94709 -66.08960 40019 ft 458 kts 204°
2026-05-06 20:58 -52.00762 -66.12327 40019 ft 458 kts 204°
2026-05-06 20:59 -52.06788 -66.15705 40019 ft 458 kts 204°
2026-05-06 20:59 -52.12766 -66.19069 40019 ft 458 kts 204°
2026-05-06 21:00 -52.18824 -66.22487 40019 ft 458 kts 204°
2026-05-06 21:00 -52.24798 -66.25867 40018 ft 458 kts 204°
2026-05-06 21:01 -52.30836 -66.29292 40019 ft 458 kts 204°
2026-05-06 21:01 -52.36863 -66.32721 40018 ft 457 kts 204°
2026-05-06 21:02 -52.42874 -66.36150 40019 ft 457 kts 204°
2026-05-06 21:02 -52.48885 -66.39590 40019 ft 458 kts 204°
2026-05-06 21:03 -52.54871 -66.43025 40016 ft 458 kts 204°
2026-05-06 21:03 -52.60885 -66.46488 40021 ft 458 kts 204°
2026-05-06 21:04 -52.66887 -66.49952 40018 ft 459 kts 204°
2026-05-06 21:04 -52.72925 -66.53448 40020 ft 458 kts 204°
2026-05-06 21:05 -52.78932 -66.56936 40016 ft 458 kts 204°
2026-05-06 21:05 -52.84937 -66.60434 40021 ft 458 kts 204°
2026-05-06 21:06 -52.90946 -66.63943 40018 ft 458 kts 204°
2026-05-06 21:06 -52.95942 -66.66899 40020 ft 457 kts 204°
2026-05-06 21:07 -53.02901 -66.71245 40019 ft 457 kts 205°
2026-05-06 21:07 -53.07867 -66.74384 40018 ft 457 kts 205°
2026-05-06 21:08 -53.13825 -66.78143 40019 ft 457 kts 205°
2026-05-06 21:08 -53.19742 -66.81873 40018 ft 457 kts 205°
2026-05-06 21:09 -53.25673 -66.85614 39609 ft 451 kts 205°
2026-05-06 21:09 -53.28601 -66.87464 39138 ft 447 kts 205°
2026-05-06 21:09 -53.31507 -66.89304 38677 ft 443 kts 205°
2026-05-06 21:09 -53.34370 -66.91120 38241 ft 439 kts 205°
2026-05-06 21:10 -53.37194 -66.92914 37811 ft 435 kts 205°
2026-05-06 21:10 -53.40041 -66.94726 37380 ft 431 kts 205°
2026-05-06 21:10 -53.42793 -66.96480 36955 ft 427 kts 205°
2026-05-06 21:10 -53.45580 -66.98259 36530 ft 423 kts 206°
2026-05-06 21:11 -53.48300 -66.99998 36111 ft 419 kts 206°
2026-05-06 21:11 -53.51009 -67.01734 35541 ft 420 kts 206°
2026-05-06 21:11 -53.53763 -67.03503 34925 ft 421 kts 206°
2026-05-06 21:11 -53.56504 -67.05263 34482 ft 418 kts 206°
2026-05-06 21:12 -53.59173 -67.06978 34126 ft 413 kts 206°
2026-05-06 21:12 -53.61848 -67.08698 33731 ft 409 kts 206°
2026-05-06 21:12 -53.64494 -67.10403 33304 ft 406 kts 206°
2026-05-06 21:12 -53.67136 -67.12109 32840 ft 404 kts 206°
2026-05-06 21:13 -53.69742 -67.13793 32401 ft 402 kts 206°
2026-05-06 21:13 -53.72346 -67.15479 31962 ft 400 kts 206°
2026-05-06 21:13 -53.74941 -67.17160 31517 ft 398 kts 206°
2026-05-06 21:13 -53.77513 -67.18830 31088 ft 396 kts 206°
2026-05-06 21:14 -53.80075 -67.20496 30663 ft 394 kts 206°
2026-05-06 21:14 -53.82645 -67.22168 30242 ft 391 kts 207°
2026-05-06 21:14 -53.85175 -67.23816 29819 ft 389 kts 207°
2026-05-06 21:14 -53.87710 -67.25469 29399 ft 387 kts 207°
2026-05-06 21:15 -53.90216 -67.27105 28989 ft 385 kts 207°
2026-05-06 21:15 -53.92699 -67.28730 28601 ft 382 kts 207°
2026-05-06 21:15 -53.95142 -67.30327 28212 ft 380 kts 207°
2026-05-06 21:15 -53.97630 -67.31956 27805 ft 377 kts 207°
2026-05-06 21:16 -54.00040 -67.33539 27424 ft 375 kts 207°
2026-05-06 21:16 -54.02468 -67.35137 27056 ft 372 kts 206°
2026-05-06 21:16 -54.04873 -67.36720 26700 ft 369 kts 207°
2026-05-06 21:16 -54.07262 -67.38294 26327 ft 367 kts 207°
2026-05-06 21:17 -54.09641 -67.39865 25930 ft 365 kts 207°
2026-05-06 21:17 -54.12005 -67.41427 25556 ft 363 kts 207°
2026-05-06 21:17 -54.14356 -67.42982 25187 ft 361 kts 207°
2026-05-06 21:17 -54.16696 -67.44528 24836 ft 359 kts 207°
2026-05-06 21:18 -54.19017 -67.46070 24473 ft 357 kts 207°
2026-05-06 21:18 -54.21307 -67.47589 24105 ft 347 kts 207°
2026-05-06 21:18 -54.23514 -67.49048 24008 ft 333 kts 207°
2026-05-06 21:18 -54.25635 -67.50453 23841 ft 323 kts 207°
2026-05-06 21:19 -54.27704 -67.51831 23586 ft 317 kts 207°
2026-05-06 21:19 -54.29751 -67.53200 23231 ft 314 kts 207°
2026-05-06 21:19 -54.31783 -67.54562 22845 ft 313 kts 207°
2026-05-06 21:19 -54.33811 -67.55920 22469 ft 312 kts 207°
2026-05-06 21:20 -54.35824 -67.57269 22115 ft 310 kts 207°
2026-05-06 21:20 -54.37802 -67.58596 21758 ft 308 kts 207°
2026-05-06 21:20 -54.39796 -67.59934 21396 ft 307 kts 207°
2026-05-06 21:20 -54.41778 -67.61264 21049 ft 305 kts 207°
2026-05-06 21:21 -54.43751 -67.62589 20718 ft 303 kts 207°
2026-05-06 21:21 -54.45711 -67.63906 20381 ft 302 kts 206°
2026-05-06 21:21 -54.47659 -67.65217 20065 ft 300 kts 207°
2026-05-06 21:21 -54.49611 -67.66477 19743 ft 300 kts 200°
2026-05-06 21:22 -54.51700 -67.66770 19468 ft 303 kts 180°
2026-05-06 21:22 -54.53778 -67.66489 19317 ft 297 kts 179°
2026-05-06 21:22 -54.55819 -67.66211 19126 ft 293 kts 180°
2026-05-06 21:22 -54.57877 -67.65949 19065 ft 299 kts 180°
2026-05-06 21:23 -54.59956 -67.65698 19132 ft 299 kts 180°
2026-05-06 21:23 -54.62015 -67.65460 19220 ft 296 kts 180°
2026-05-06 21:23 -54.64062 -67.65228 18916 ft 295 kts 180°
2026-05-06 21:23 -54.66101 -67.64998 18176 ft 292 kts 180°
2026-05-06 21:24 -54.68129 -67.64772 17172 ft 292 kts 180°
2026-05-06 21:24 -54.70156 -67.64543 16162 ft 291 kts 180°
2026-05-06 21:24 -54.72169 -67.64315 15142 ft 289 kts 180°
2026-05-06 21:24 -54.74167 -67.64092 14140 ft 287 kts 180°
2026-05-06 21:25 -54.76126 -67.63878 13125 ft 284 kts 180°
2026-05-06 21:25 -54.78087 -67.63711 12090 ft 278 kts 185°
2026-05-06 21:25 -54.79898 -67.64560 11045 ft 266 kts 211°
2026-05-06 21:25 -54.81265 -67.66580 10029 ft 255 kts 237°
2026-05-06 21:26 -54.81864 -67.69407 9014 ft 249 kts 262°
2026-05-06 21:26 -54.82006 -67.72379 8023 ft 246 kts 265°
2026-05-06 21:26 -54.82126 -67.75297 6974 ft 237 kts 265°
2026-05-06 21:26 -54.82236 -67.77944 6058 ft 225 kts 265°
2026-05-06 21:27 -54.82346 -67.80554 5470 ft 201 kts 265°
2026-05-06 21:27 -54.82437 -67.82789 5395 ft 178 kts 264°
2026-05-06 21:27 -54.82550 -67.84771 5416 ft 154 kts 263°
2026-05-06 21:27 -54.82638 -67.86500 5346 ft 130 kts 264°
2026-05-06 21:28 -54.82703 -67.87974 5189 ft 119 kts 264°
2026-05-06 21:28 -54.82763 -67.89383 5018 ft 115 kts 264°
2026-05-06 21:28 -54.82820 -67.90760 4856 ft 114 kts 264°
2026-05-06 21:28 -54.82876 -67.92140 4689 ft 116 kts 264°
2026-05-06 21:29 -54.82931 -67.93551 4520 ft 117 kts 264°
2026-05-06 21:29 -54.82986 -67.94946 4331 ft 115 kts 264°
2026-05-06 21:29 -54.83039 -67.96309 4154 ft 115 kts 264°
2026-05-06 21:29 -54.83094 -67.97689 3974 ft 115 kts 264°
2026-05-06 21:30 -54.83148 -67.99069 3796 ft 114 kts 264°
2026-05-06 21:30 -54.83201 -68.00441 3613 ft 114 kts 264°
2026-05-06 21:30 -54.83254 -68.01831 3448 ft 117 kts 264°
2026-05-06 21:30 -54.83309 -68.03241 3260 ft 117 kts 264°
2026-05-06 21:31 -54.83363 -68.04643 3088 ft 117 kts 264°
2026-05-06 21:31 -54.83418 -68.06042 2901 ft 116 kts 264°
2026-05-06 21:31 -54.83472 -68.07432 2717 ft 115 kts 264°
2026-05-06 21:31 -54.83525 -68.08816 2536 ft 115 kts 264°
2026-05-06 21:32 -54.83578 -68.10203 2363 ft 115 kts 265°
2026-05-06 21:32 -54.83686 -68.12964 2007 ft 114 kts 265°
2026-05-06 21:32 -54.83739 -68.14342 1833 ft 114 kts 266°
2026-05-06 21:33 -54.83793 -68.15719 1656 ft 114 kts 265°
2026-05-06 21:33 -54.83847 -68.17097 1480 ft 115 kts 265°
2026-05-06 21:33 -54.83899 -68.18478 1300 ft 114 kts 266°
2026-05-06 21:33 -54.83953 -68.19851 1123 ft 114 kts 266°
2026-05-06 21:34 -54.84007 -68.21242 960 ft 120 kts 266°
2026-05-06 21:34 -54.84064 -68.22698 763 ft 124 kts 266°
2026-05-06 21:34 -54.84122 -68.24217 571 ft 125 kts 266°
2026-05-06 21:34 -54.84181 -68.25703 357 ft 126 kts 265°
2026-05-06 21:35 -54.84250 -68.27209 157 ft 124 kts 266°
2026-05-06 21:35 -54.84300 -68.28642 91 ft 114 kts 266°
2026-05-06 21:35 -54.84344 -68.29846 88 ft 80 kts 266°
2026-05-06 21:35 -54.84374 -68.30598 86 ft 57 kts 266°
2026-05-06 21:36 -54.84388 -68.30972 92 ft 24 kts 266°
2026-05-06 21:36 -54.84394 -68.31217 93 ft 15 kts 280°
2026-05-06 21:36 -54.84323 -68.31314 92 ft 15 kts 353°
2026-05-06 21:36 -54.84224 -68.31327 91 ft 14 kts 355°
2026-05-06 21:37 -54.84129 -68.31318 92 ft 9 kts 24°
2026-05-06 21:37 -54.84100 -68.31228 91 ft 8 kts 77°
2026-05-06 21:37 -54.84071 -68.31170 91 ft 6 kts 13°
2026-05-06 21:37 -54.84042 -68.31173 87 ft 4 kts 352°
2026-05-06 21:38 -54.84030 -68.31176 87 ft 0 kts 350°